User: anonymous   Login
Location: Ash Swamp
(41.5170°N, 74.6157°W)
Time: 05:37:26
(UTC+00:00)
Language:

Cosmos 192 - Orbit

View from above orbital plane
View from above orbital plane
View from above satellite
View from above satellite

Ground track
Ground track

The orbit data is extracted from the following two-line orbital elements,

1  3047U 67116A   20273.54658164 +.00000026 +00000-0 +12520-4 0  9990
2  3047 074.0145 019.8775 0008955 332.0575 028.0107 14.55648205794857
Epoch (UTC): 29 September 2020 13:07:04
Eccentricity: 0.0008955
inclination: 74.0145°
perigee height: 701 km
apogee height: 713 km
right ascension of ascending node: 19.8775°
argument of perigee: 332.0575°
revolutions per day: 14.55648205
mean anomaly at epoch: 28.0107°
orbit number at epoch: 79485

The dashed part of the orbit path shows where the satellite is in the earth's shadow,  

DLR